Location: East Irvine
(33.6759°N, 117.7598°W)
Time: 01:33:09
(UTC+00:00)

Cosmos 1400 Rocket - Pass Details

Date: 15 November 2025
Orbit: 477 x 514 km, 81.1° (Epoch: 07 December)

Event Time Altitude Azimuth Distance (km) Brightness Sun altitude
Rises 02:16:36 0° 182° (S) 2,618 6.4 -18.4°
Reaches altitude 10° 02:18:44 10° 180° (S) 1,735 5.5 -18.9°
Maximum altitude 02:22:32 71° 97° (E) 548 2.5 -19.7°
Enters shadow 02:23:28 48° 30° (NNE) 680 3.0 -19.9°
